Regional Weather Roundup
Issued by NWS

Home | Current Version | Previous Version | Graphics & Text | Print | Product List | Glossary On
Versions: 1 2 3 4 5 6 7 8 9 10 11 12 13 14 15 16 17 18 19 20 21 22 23 24 25 26 27
000
ASUS45 KCYS 181010
RWRWY

WYOMING REGIONAL WEATHER ROUNDUP
NATIONAL WEATHER SERVICE CHEYENNE WY
400 AM MDT WED OCT 18 2017

NOTE:  "FAIR" INDICATES FEW OR NO CLOUDS BELOW 12,000 FEET
WITH NO SIGNIFICANT WEATHER AND/OR OBSTRUCTIONS TO VISIBILITY.

WYZ001-181100-
YELLOWSTONE NATIONAL PARK

CITY           SKY/WX    TMP DP  RH WIND       PRES   REMARKS
LK YELLOWSTONE NOT AVBL
W YELLOWSTONE  NOT AVBL

$$
WYZ002>013-054>058-071-098>099-181100-
NORTHERN WYOMING

CITY           SKY/WX    TMP DP  RH WIND       PRES   REMARKS
JACKSON        FAIR      47  15  27 SW6       30.19R
CODY           NOT AVBL
GREYBULL       FAIR      46  24  42 VRB5      29.93R
WORLAND        FAIR      33  27  78 VRB3      29.94R
SHERIDAN       FAIR      50  21  32 N5        29.93R
BUFFALO        FAIR      59   9  13 N8        29.96R
GILLETTE       FAIR      53  20  27 VRB3      29.92R
HULETT         FAIR      57  21  24 W3        29.93R
NEWCASTLE      FAIR      46  23  39 N8        29.93R

$$
WYZ014>020-022>026-101>103-181100-
CENTRAL WYOMING

CITY           SKY/WX    TMP DP  RH WIND       PRES   REMARKS
BIG PINEY      FAIR      30  10  43 E13       30.21F WCI  20
PINEDALE       FAIR      25  18  74 NW8       30.21F WCI  16
DUBOIS         FAIR      48   9  20 W24G37    30.07F
LANDER         FAIR      50  13  22 E6        30.01F
RIVERTON       FAIR      52  10  18 E5        30.03R
CASPER         FAIR      45  11  25 SW16      30.03R
DOUGLAS        FAIR      52  10  18 N5        29.97R

$$
WYZ021-027>030-104>119-181100-
SOUTHERN WYOMING

CITY           SKY/WX    TMP DP  RH WIND       PRES   REMARKS
EVANSTON       FAIR      43   7  22 CALM      30.26S
KEMMERER       FAIR      36   7  30 CALM      30.25S
FORT BRIDGER   FAIR      47   3  16 SW12      30.27S
ROCK SPRINGS   FAIR      44   3  18 SW13      30.21S
DIXON          FAIR      26  16  64 E6        30.25S WCI  20
RAWLINS        FAIR      44   7  21 W7        30.17R
SARATOGA       FAIR      32  14  47 S3        30.20R
LARAMIE        FAIR      44  10  25 SW15      30.16F
CHEYENNE       FAIR      58  10  15 W30G39    30.05F
TORRINGTON     FAIR      60  12  15 SW13      29.92S
PINE BLUFFS    FAIR      54  18  24 SW13      30.03S

$$




USA.gov is the U.S. government's official web portal to all federal, state and local government web resources and services.